{"data":{"norad_id":54013,"epoch":"2026-09-20T16:00:01.999584Z","epoch_age_seconds":72497,"freshness":"FRESH","line1":"1 54013U 22125BB  26263.66668981  .00003245  00000+0  10723-3 0  9993","line2":"2 54013  53.1597  36.7685 0001237  86.7267 166.3172 15.34366066  5886","mean_motion":15.34366066,"eccentricity":0.0001237,"inclination_deg":53.1597,"raan_deg":36.7685,"arg_perigee_deg":86.7267,"mean_anomaly_deg":166.3172,"bstar":0.00010723,"rev_number":588,"period_min":93.849833615911,"perigee_km":461.957876651,"apogee_km":463.6503254794,"semimajor_km":6840.9411010652,"source":"CELESTRAK","updated_at":"2026-09-21T09:00:33.075072Z"}}